Pagrindinis puslapis
METAR-TAF:

METAR-TAF

Oro uostai :

Regional_Airport

Clinton, Oklahoma, Jungtinės Amerikos Valstijos

platuma: 35-32-17N, ilguma: 098-55-17W, Aukštis: 492 m

Dabartinis oras

Ataskaita buvo paskelbta 25 minutes, ne 02:55 UTC
Vėjas 5 kt iš Pietų/Pietryčių
Temperatūra 30°C
Drėgmė 33%
Slėgis 1013 hPa
Matomumas: 16.1 km
Giedras dangus

METAR: KCLK 160255Z AUTO 15005KT 10SM CLR 30/12 A2992 RMK AO2

Laikas: 22:20 (03:20 UTC)


TAF: trūkstamas

Orai ataskaitas ir orų prognozės (METAR, TAF).

turimą stotys yra geltonos ir raudonos taškus žemėlapyje.

Perkelti pele per norėdami pamatyti stoties vardą.

Tada spustelėkite, norėdami matyti oro stebėjimo ir prognozės.

Norėdami pakeisti žemėlapį: spustelėkite ant žalios mygtukų su juodo kryžiaus žemyn,; žalią mygtuką su brūkšneliu, jei norite nutolinti; arba žalių rodyklių gretimoms žemėlapius.


METAR-TAF: